ELY5130 LUKK-LLBG

Flight info

Callsign ELY5130
Flight time 2h 27m
Altitude 37000
Route LIPTA DCT KODRU DCT RIPGA DCT PILAT DCT RIXEN UG1 TETSA UL620 IST UT35 AYT UM855 TOMBI DCT IDAKU L35 PIKOG L609 ZUKKO
Aircraft B738/M-VGDW/C

Departure

Time 2026-05-07 10:09
Airport Chişinău International Airport (LUKK)

Arrival

Time 2026-05-07 12:36
Airport Ben Gurion International Airport (LLBG)
Time Latitude Longitude Altitude Speed Heading
2026-05-07 09:03 46.93365 28.93667 336 ft 0 kts
2026-05-07 10:02 46.93390 28.93668 336 ft 8 kts 349°
2026-05-07 10:02 46.93412 28.93608 336 ft 7 kts 277°
2026-05-07 10:02 46.93417 28.93537 336 ft 8 kts 275°
2026-05-07 10:02 46.93388 28.93480 336 ft 8 kts 189°
2026-05-07 10:03 46.93312 28.93467 336 ft 14 kts 186°
2026-05-07 10:03 46.93216 28.93451 336 ft 13 kts 186°
2026-05-07 10:03 46.93157 28.93374 336 ft 13 kts 273°
2026-05-07 10:03 46.93167 28.93246 336 ft 12 kts 277°
2026-05-07 10:04 46.93177 28.93123 336 ft 12 kts 276°
2026-05-07 10:04 46.93186 28.93005 336 ft 11 kts 276°
2026-05-07 10:04 46.93194 28.92891 336 ft 11 kts 276°
2026-05-07 10:04 46.93202 28.92782 336 ft 11 kts 276°
2026-05-07 10:05 46.93210 28.92678 336 ft 10 kts 276°
2026-05-07 10:05 46.93218 28.92574 336 ft 13 kts 277°
2026-05-07 10:05 46.93230 28.92426 336 ft 15 kts 276°
2026-05-07 10:05 46.93240 28.92284 336 ft 14 kts 276°
2026-05-07 10:06 46.93250 28.92150 336 ft 13 kts 276°
2026-05-07 10:06 46.93232 28.92035 336 ft 12 kts 202°
2026-05-07 10:06 46.93150 28.92002 336 ft 12 kts 194°
2026-05-07 10:06 46.93070 28.91986 336 ft 12 kts 179°
2026-05-07 10:07 46.92991 28.91989 336 ft 11 kts 178°
2026-05-07 10:07 46.92916 28.91994 336 ft 11 kts 178°
2026-05-07 10:07 46.92844 28.91997 336 ft 10 kts 178°
2026-05-07 10:07 46.92776 28.91996 336 ft 10 kts 185°
2026-05-07 10:08 46.92750 28.92044 336 ft 11 kts 87°
2026-05-07 10:08 46.92762 28.92490 336 ft 81 kts 88°
2026-05-07 10:08 46.92791 28.93656 337 ft 146 kts 88°
2026-05-07 10:08 46.92852 28.95368 612 ft 182 kts 88°
2026-05-07 10:09 46.92963 28.97235 1526 ft 181 kts 88°
2026-05-07 10:09 46.93108 28.99031 2517 ft 176 kts 88°
2026-05-07 10:09 46.93226 29.00804 3271 ft 175 kts 92°
2026-05-07 10:09 46.93247 29.02627 3841 ft 186 kts 95°
2026-05-07 10:10 46.93195 29.04625 4220 ft 208 kts 97°
2026-05-07 10:10 46.92885 29.06788 4506 ft 228 kts 118°
2026-05-07 10:10 46.91835 29.08584 5029 ft 236 kts 147°
2026-05-07 10:10 46.90275 29.09257 5765 ft 242 kts 182°
2026-05-07 10:11 46.88638 29.08466 6291 ft 260 kts 212°
2026-05-07 10:11 46.87270 29.06662 6980 ft 271 kts 226°
2026-05-07 10:11 46.86046 29.04513 7744 ft 278 kts 229°
2026-05-07 10:11 46.84853 29.02272 8535 ft 282 kts 231°
2026-05-07 10:12 46.83678 28.99945 9298 ft 287 kts 232°
2026-05-07 10:12 46.82500 28.97569 10090 ft 290 kts 233°
2026-05-07 10:12 46.81301 28.95163 10809 ft 296 kts 233°
2026-05-07 10:12 46.80059 28.92680 11266 ft 312 kts 233°
2026-05-07 10:13 46.78742 28.90042 11556 ft 332 kts 233°
2026-05-07 10:13 46.77344 28.87236 11854 ft 350 kts 233°
2026-05-07 10:13 46.75889 28.84313 12379 ft 359 kts 233°
2026-05-07 10:13 46.74434 28.81388 13066 ft 363 kts 233°
2026-05-07 10:14 46.72943 28.78390 13771 ft 367 kts 234°
2026-05-07 10:14 46.71440 28.75364 14461 ft 370 kts 234°
2026-05-07 10:14 46.69926 28.72311 15132 ft 374 kts 234°
2026-05-07 10:14 46.68393 28.69217 15786 ft 378 kts 234°
2026-05-07 10:15 46.66855 28.66104 16451 ft 380 kts 234°
2026-05-07 10:15 46.65307 28.62964 17070 ft 384 kts 234°
2026-05-07 10:15 46.63687 28.59840 17652 ft 388 kts 230°
2026-05-07 10:15 46.61836 28.56964 18254 ft 391 kts 224°
2026-05-07 10:16 46.59768 28.54379 18839 ft 394 kts 218°
2026-05-07 10:16 46.57549 28.51990 19393 ft 398 kts 216°
2026-05-07 10:16 46.55266 28.49679 19927 ft 402 kts 215°
2026-05-07 10:16 46.52968 28.47337 20460 ft 405 kts 216°
2026-05-07 10:17 46.50659 28.44965 20983 ft 408 kts 216°
2026-05-07 10:17 46.48331 28.42560 21478 ft 412 kts 216°
2026-05-07 10:17 46.45991 28.40138 21960 ft 415 kts 216°
2026-05-07 10:17 46.43646 28.37665 22439 ft 418 kts 217°
2026-05-07 10:18 46.41284 28.35176 22896 ft 422 kts 217°
2026-05-07 10:18 46.38894 28.32682 23356 ft 424 kts 216°
2026-05-07 10:18 46.36487 28.30186 23793 ft 428 kts 216°
2026-05-07 10:18 46.34053 28.27669 24225 ft 430 kts 216°
2026-05-07 10:19 46.31611 28.25147 24658 ft 433 kts 217°
2026-05-07 10:19 46.29150 28.22611 25072 ft 436 kts 217°
2026-05-07 10:19 46.26678 28.20065 25465 ft 438 kts 217°
2026-05-07 10:19 46.24187 28.17500 25859 ft 441 kts 217°
2026-05-07 10:20 46.21628 28.15041 26234 ft 444 kts 211°
2026-05-07 10:20 46.18827 28.13101 26600 ft 449 kts 203°
2026-05-07 10:20 46.15836 28.11752 26951 ft 453 kts 195°
2026-05-07 10:20 46.12741 28.10827 27297 ft 456 kts 192°
2026-05-07 10:21 46.09593 28.10105 27629 ft 459 kts 190°
2026-05-07 10:21 46.06421 28.09441 27953 ft 461 kts 190°
2026-05-07 10:21 46.03280 28.08767 28261 ft 464 kts 191°
2026-05-07 10:21 46.00083 28.08070 28557 ft 466 kts 191°
2026-05-07 10:22 45.96869 28.07362 28862 ft 468 kts 191°
2026-05-07 10:22 45.93643 28.06647 29146 ft 471 kts 191°
2026-05-07 10:22 45.90401 28.05925 29426 ft 473 kts 191°
2026-05-07 10:22 45.87144 28.05203 29704 ft 475 kts 191°
2026-05-07 10:23 45.83873 28.04471 30001 ft 476 kts 191°
2026-05-07 10:23 45.80612 28.03734 30378 ft 475 kts 191°
2026-05-07 10:23 45.77353 28.03007 30769 ft 473 kts 191°
2026-05-07 10:23 45.74102 28.02282 31154 ft 472 kts 191°
2026-05-07 10:24 45.70860 28.01561 31497 ft 471 kts 191°
2026-05-07 10:24 45.67622 28.00842 31856 ft 470 kts 191°
2026-05-07 10:24 45.64392 28.00126 32211 ft 469 kts 191°
2026-05-07 10:24 45.61167 27.99412 32577 ft 468 kts 191°
2026-05-07 10:25 45.57955 27.98701 32904 ft 467 kts 191°
2026-05-07 10:25 45.54746 27.97992 33237 ft 466 kts 191°
2026-05-07 10:25 45.52583 27.97515 33475 ft 465 kts 191°
2026-05-07 10:25 45.49437 27.96815 33789 ft 464 kts 191°
2026-05-07 10:26 45.45173 27.95872 34197 ft 463 kts 191°
2026-05-07 10:26 45.43012 27.95396 34369 ft 464 kts 191°
2026-05-07 10:26 45.39829 27.94698 34665 ft 463 kts 191°
2026-05-07 10:26 45.36691 27.94011 34961 ft 462 kts 191°
2026-05-07 10:27 45.33472 27.93306 35225 ft 462 kts 191°
2026-05-07 10:27 45.30296 27.92613 35478 ft 462 kts 191°
2026-05-07 10:27 45.27160 27.91928 35772 ft 461 kts 191°
2026-05-07 10:27 45.23991 27.91258 36024 ft 461 kts 189°
2026-05-07 10:28 45.20772 27.91093 36239 ft 465 kts 179°
2026-05-07 10:28 45.17556 27.91666 36499 ft 467 kts 170°
2026-05-07 10:28 45.14407 27.92805 36732 ft 468 kts 165°
2026-05-07 10:28 45.11322 27.94299 36971 ft 469 kts 161°
2026-05-07 10:29 45.08279 27.95972 37116 ft 471 kts 160°
2026-05-07 10:29 45.02150 27.99295 37134 ft 471 kts 161°
2026-05-07 10:30 44.92981 28.04165 37137 ft 470 kts 161°
2026-05-07 10:30 44.86853 28.07406 37138 ft 471 kts 161°
2026-05-07 10:31 44.80614 28.10188 37139 ft 470 kts 169°
2026-05-07 10:31 44.74192 28.11901 37139 ft 469 kts 172°
2026-05-07 10:32 44.67764 28.13501 37139 ft 470 kts 172°
2026-05-07 10:32 44.61324 28.15117 37140 ft 470 kts 172°
2026-05-07 10:33 44.54881 28.16738 37140 ft 470 kts 172°
2026-05-07 10:33 44.48479 28.18348 37140 ft 471 kts 172°
2026-05-07 10:34 44.42041 28.19985 37140 ft 470 kts 172°
2026-05-07 10:34 44.35589 28.21614 37141 ft 471 kts 172°
2026-05-07 10:35 44.29137 28.23235 37141 ft 471 kts 172°
2026-05-07 10:35 44.22682 28.24853 37140 ft 471 kts 172°
2026-05-07 10:36 44.16229 28.26465 37140 ft 471 kts 172°
2026-05-07 10:36 44.09778 28.28074 37140 ft 471 kts 172°
2026-05-07 10:37 44.03317 28.29681 37139 ft 472 kts 172°
2026-05-07 10:37 43.96852 28.31286 37139 ft 472 kts 172°
2026-05-07 10:38 43.90390 28.32886 37139 ft 472 kts 172°
2026-05-07 10:38 43.83926 28.34483 37138 ft 472 kts 172°
2026-05-07 10:39 43.77461 28.36077 37138 ft 472 kts 172°
2026-05-07 10:39 43.70989 28.37669 37138 ft 472 kts 172°
2026-05-07 10:40 43.64519 28.39258 37139 ft 473 kts 172°
2026-05-07 10:40 43.58031 28.40847 37138 ft 473 kts 172°
2026-05-07 10:41 43.51588 28.42422 37139 ft 474 kts 172°
2026-05-07 10:41 43.45100 28.44004 37139 ft 474 kts 172°
2026-05-07 10:42 43.38610 28.45583 37139 ft 474 kts 172°
2026-05-07 10:42 43.32104 28.47163 37140 ft 475 kts 172°
2026-05-07 10:43 43.25601 28.48739 37141 ft 475 kts 172°
2026-05-07 10:43 43.19090 28.50313 37142 ft 475 kts 172°
2026-05-07 10:44 43.12582 28.51883 37141 ft 475 kts 172°
2026-05-07 10:44 43.06068 28.53451 37142 ft 476 kts 172°
2026-05-07 10:45 42.99540 28.55019 37141 ft 476 kts 172°
2026-05-07 10:45 42.93010 28.56584 37142 ft 477 kts 172°
2026-05-07 10:46 42.86470 28.58148 37141 ft 477 kts 172°
2026-05-07 10:46 42.79940 28.59707 37141 ft 477 kts 172°
2026-05-07 10:47 42.73402 28.61264 37141 ft 477 kts 172°
2026-05-07 10:47 42.66866 28.62817 37142 ft 477 kts 172°
2026-05-07 10:48 42.60332 28.64367 37142 ft 477 kts 172°
2026-05-07 10:48 42.53839 28.65903 37142 ft 477 kts 172°
2026-05-07 10:49 42.47299 28.67448 37142 ft 478 kts 172°
2026-05-07 10:49 42.40751 28.68991 37142 ft 478 kts 172°
2026-05-07 10:50 42.34203 28.70540 37142 ft 478 kts 172°
2026-05-07 10:50 42.27659 28.72074 37141 ft 478 kts 173°
2026-05-07 10:51 42.21107 28.73606 37141 ft 478 kts 173°
2026-05-07 10:51 42.14550 28.75135 37141 ft 478 kts 173°
2026-05-07 10:52 42.07980 28.76535 37141 ft 477 kts 177°
2026-05-07 10:52 42.01372 28.76920 37141 ft 475 kts 182°
2026-05-07 10:53 41.94752 28.77148 37142 ft 477 kts 181°
2026-05-07 10:53 41.88123 28.77403 37141 ft 477 kts 181°
2026-05-07 10:54 41.81489 28.77661 37141 ft 477 kts 181°
2026-05-07 10:54 41.74859 28.77921 37141 ft 477 kts 181°
2026-05-07 10:55 41.68231 28.78179 37141 ft 477 kts 181°
2026-05-07 10:55 41.61597 28.78437 37142 ft 477 kts 181°
2026-05-07 10:56 41.54971 28.78694 37141 ft 477 kts 181°
2026-05-07 10:56 41.48339 28.78950 37141 ft 477 kts 181°
2026-05-07 10:57 41.41708 28.79209 37142 ft 477 kts 181°
2026-05-07 10:57 41.35083 28.79466 37142 ft 476 kts 181°
2026-05-07 10:58 41.28508 28.79720 37142 ft 476 kts 181°
2026-05-07 10:58 41.21878 28.79977 37142 ft 477 kts 181°
2026-05-07 10:59 41.15249 28.80262 37141 ft 477 kts 181°
2026-05-07 10:59 41.08614 28.80543 37142 ft 477 kts 181°
2026-05-07 11:00 41.01979 28.80824 37142 ft 477 kts 181°
2026-05-07 11:00 40.95381 28.81990 37141 ft 482 kts 168°
2026-05-07 11:01 40.89024 28.84839 37142 ft 484 kts 160°
2026-05-07 11:01 40.82810 28.88285 37142 ft 484 kts 159°
2026-05-07 11:02 40.76582 28.91699 37142 ft 484 kts 159°
2026-05-07 11:02 40.70350 28.95086 37142 ft 484 kts 159°
2026-05-07 11:03 40.64121 28.98461 37141 ft 484 kts 159°
2026-05-07 11:03 40.57931 29.01838 37142 ft 484 kts 159°
2026-05-07 11:04 40.51659 29.05234 37142 ft 484 kts 159°
2026-05-07 11:04 40.45421 29.08600 37141 ft 485 kts 159°
2026-05-07 11:05 40.39224 29.11934 37141 ft 485 kts 159°
2026-05-07 11:05 40.32944 29.15305 37141 ft 485 kts 159°
2026-05-07 11:06 40.26741 29.18629 37141 ft 485 kts 159°
2026-05-07 11:06 40.20494 29.21971 37144 ft 485 kts 159°
2026-05-07 11:07 40.14243 29.25327 37145 ft 486 kts 159°
2026-05-07 11:07 40.07987 29.28656 37145 ft 486 kts 160°
2026-05-07 11:08 40.01727 29.31976 37147 ft 486 kts 160°
2026-05-07 11:08 39.95464 29.35292 37147 ft 486 kts 160°
2026-05-07 11:09 39.89190 29.38625 37149 ft 487 kts 159°
2026-05-07 11:09 39.82965 29.42082 37151 ft 487 kts 159°
2026-05-07 11:10 39.76722 29.45514 37153 ft 487 kts 159°
2026-05-07 11:10 39.70484 29.48932 37156 ft 487 kts 159°
2026-05-07 11:11 39.64244 29.52346 37159 ft 487 kts 159°
2026-05-07 11:11 39.57943 29.55563 37163 ft 486 kts 161°
2026-05-07 11:12 39.51620 29.58669 37172 ft 486 kts 161°
2026-05-07 11:12 39.45286 29.61749 37181 ft 486 kts 164°
2026-05-07 11:13 39.38868 29.64234 37187 ft 484 kts 166°
2026-05-07 11:13 39.32386 29.66619 37189 ft 484 kts 166°
2026-05-07 11:14 39.25907 29.69000 37191 ft 485 kts 166°
2026-05-07 11:14 39.19422 29.71380 37193 ft 484 kts 166°
2026-05-07 11:15 39.12942 29.73753 37195 ft 483 kts 166°
2026-05-07 11:15 39.06471 29.76141 37197 ft 484 kts 166°
2026-05-07 11:16 39.00004 29.78517 37198 ft 484 kts 166°
2026-05-07 11:16 38.94618 29.80489 37199 ft 484 kts 166°
2026-05-07 11:17 38.87056 29.83250 37200 ft 484 kts 166°
2026-05-07 11:17 38.80579 29.85609 37200 ft 484 kts 166°
2026-05-07 11:18 38.75197 29.87565 37201 ft 484 kts 166°
2026-05-07 11:18 38.68721 29.89915 37202 ft 483 kts 167°
2026-05-07 11:19 38.62249 29.92259 37207 ft 483 kts 167°
2026-05-07 11:19 38.55781 29.94597 37210 ft 484 kts 167°
2026-05-07 11:20 38.49298 29.96937 37212 ft 483 kts 167°
2026-05-07 11:20 38.42830 29.99266 37215 ft 483 kts 167°
2026-05-07 11:21 38.36366 30.01590 37217 ft 483 kts 167°
2026-05-07 11:21 38.29897 30.03911 37220 ft 483 kts 167°
2026-05-07 11:22 38.23431 30.06227 37222 ft 482 kts 167°
2026-05-07 11:22 38.16963 30.08539 37225 ft 483 kts 167°
2026-05-07 11:23 38.10498 30.10846 37226 ft 483 kts 167°
2026-05-07 11:23 38.04036 30.13148 37227 ft 483 kts 167°
2026-05-07 11:24 37.97613 30.15432 37228 ft 483 kts 167°
2026-05-07 11:24 37.91150 30.17725 37229 ft 483 kts 167°
2026-05-07 11:25 37.84679 30.20017 37229 ft 483 kts 167°
2026-05-07 11:25 37.78218 30.22302 37228 ft 483 kts 167°
2026-05-07 11:26 37.71745 30.24587 37227 ft 483 kts 167°
2026-05-07 11:26 37.65280 30.26865 37225 ft 482 kts 167°
2026-05-07 11:27 37.58813 30.29139 37221 ft 482 kts 167°
2026-05-07 11:27 37.52348 30.31408 37217 ft 482 kts 167°
2026-05-07 11:28 37.45879 30.33675 37211 ft 483 kts 167°
2026-05-07 11:28 37.39406 30.35939 37205 ft 483 kts 167°
2026-05-07 11:29 37.32932 30.38200 37197 ft 482 kts 167°
2026-05-07 11:29 37.26470 30.40452 37185 ft 482 kts 167°
2026-05-07 11:30 37.20013 30.42699 37174 ft 482 kts 167°
2026-05-07 11:30 37.13552 30.44943 37165 ft 482 kts 167°
2026-05-07 11:31 37.07088 30.47184 37157 ft 482 kts 167°
2026-05-07 11:31 37.00635 30.49416 37152 ft 481 kts 167°
2026-05-07 11:32 36.90993 30.52747 37147 ft 481 kts 167°
2026-05-07 11:33 36.84532 30.54974 37146 ft 482 kts 168°
2026-05-07 11:33 36.78064 30.57198 37145 ft 482 kts 168°
2026-05-07 11:34 36.71609 30.59415 37146 ft 481 kts 168°
2026-05-07 11:34 36.65151 30.61629 37147 ft 481 kts 168°
2026-05-07 11:35 36.58703 30.63836 37148 ft 481 kts 168°
2026-05-07 11:35 36.52255 30.66039 37149 ft 481 kts 168°
2026-05-07 11:36 36.45810 30.68237 37151 ft 480 kts 168°
2026-05-07 11:36 36.39364 30.70432 37153 ft 480 kts 168°
2026-05-07 11:37 36.32924 30.72638 37155 ft 480 kts 167°
2026-05-07 11:37 36.26482 30.74841 37155 ft 480 kts 168°
2026-05-07 11:38 36.20041 30.77027 37156 ft 480 kts 168°
2026-05-07 11:38 36.13602 30.79207 37157 ft 480 kts 168°
2026-05-07 11:39 36.07181 30.81512 37154 ft 482 kts 162°
2026-05-07 11:39 36.01255 30.85320 37156 ft 486 kts 147°
2026-05-07 11:40 35.95881 30.90390 37156 ft 486 kts 142°
2026-05-07 11:40 35.90623 30.95623 37154 ft 486 kts 143°
2026-05-07 11:41 35.85344 31.00828 37154 ft 486 kts 143°
2026-05-07 11:41 35.80058 31.06015 37154 ft 486 kts 143°
2026-05-07 11:42 35.74781 31.11210 37154 ft 486 kts 143°
2026-05-07 11:42 35.69506 31.16409 37155 ft 486 kts 143°
2026-05-07 11:43 35.64228 31.21582 37155 ft 485 kts 143°
2026-05-07 11:43 35.58944 31.26743 37155 ft 485 kts 143°
2026-05-07 11:44 35.53653 31.31900 37155 ft 485 kts 143°
2026-05-07 11:44 35.48363 31.37045 37155 ft 485 kts 143°
2026-05-07 11:45 35.43074 31.42181 37153 ft 485 kts 143°
2026-05-07 11:45 35.37782 31.47309 37153 ft 485 kts 143°
2026-05-07 11:46 35.32489 31.52430 37152 ft 485 kts 143°
2026-05-07 11:46 35.27191 31.57548 37151 ft 485 kts 143°
2026-05-07 11:47 35.21898 31.62652 37150 ft 484 kts 144°
2026-05-07 11:47 35.16600 31.67751 37149 ft 484 kts 144°
2026-05-07 11:48 35.11305 31.72840 37148 ft 484 kts 144°
2026-05-07 11:48 35.06003 31.77925 37147 ft 484 kts 144°
2026-05-07 11:49 35.00742 31.82964 37146 ft 484 kts 144°
2026-05-07 11:49 34.95444 31.88029 37146 ft 483 kts 144°
2026-05-07 11:50 34.90154 31.93078 37145 ft 483 kts 144°
2026-05-07 11:50 34.84864 31.98119 37144 ft 483 kts 144°
2026-05-07 11:51 34.79572 32.03154 37143 ft 482 kts 144°
2026-05-07 11:51 34.74283 32.08175 37142 ft 482 kts 144°
2026-05-07 11:52 34.68999 32.13185 37142 ft 481 kts 144°
2026-05-07 11:52 34.63723 32.18180 37141 ft 481 kts 144°
2026-05-07 11:53 34.58444 32.23168 37142 ft 481 kts 144°
2026-05-07 11:53 34.53161 32.28153 37141 ft 481 kts 144°
2026-05-07 11:54 34.47872 32.33132 37142 ft 481 kts 145°
2026-05-07 11:54 34.42591 32.38100 37142 ft 481 kts 145°
2026-05-07 11:55 34.37302 32.43065 37141 ft 481 kts 145°
2026-05-07 11:55 34.32059 32.47999 37141 ft 481 kts 145°
2026-05-07 11:56 34.26776 32.52952 37141 ft 481 kts 145°
2026-05-07 11:56 34.21484 32.57888 37140 ft 481 kts 145°
2026-05-07 11:57 34.16193 32.62814 37140 ft 480 kts 145°
2026-05-07 11:57 34.10897 32.67737 37140 ft 480 kts 145°
2026-05-07 11:58 34.05464 32.72398 37140 ft 478 kts 150°
2026-05-07 11:58 33.99783 32.76554 37139 ft 478 kts 152°
2026-05-07 11:59 33.94154 32.80670 37139 ft 475 kts 152°
2026-05-07 11:59 33.88494 32.84844 37138 ft 474 kts 152°
2026-05-07 12:00 33.82895 32.88981 36869 ft 478 kts 152°
2026-05-07 12:00 33.80075 32.91064 36464 ft 475 kts 152°
2026-05-07 12:00 33.77262 32.93160 35769 ft 476 kts 151°
2026-05-07 12:00 33.74447 32.95256 35107 ft 476 kts 152°
2026-05-07 12:01 33.71639 32.97342 34610 ft 473 kts 152°
2026-05-07 12:01 33.68846 32.99411 34119 ft 469 kts 152°
2026-05-07 12:01 33.66080 33.01457 33639 ft 466 kts 152°
2026-05-07 12:01 33.63334 33.03486 33164 ft 462 kts 152°
2026-05-07 12:02 33.60604 33.05500 32693 ft 458 kts 152°
2026-05-07 12:02 33.57902 33.07492 32230 ft 455 kts 152°
2026-05-07 12:02 33.55215 33.09471 31772 ft 452 kts 152°
2026-05-07 12:02 33.52547 33.11435 31316 ft 448 kts 152°
2026-05-07 12:03 33.49900 33.13382 30866 ft 445 kts 152°
2026-05-07 12:03 33.47265 33.15318 30419 ft 442 kts 152°
2026-05-07 12:03 33.44651 33.17239 29981 ft 439 kts 152°
2026-05-07 12:03 33.42057 33.19142 29546 ft 436 kts 151°
2026-05-07 12:04 33.39511 33.21010 29114 ft 434 kts 151°
2026-05-07 12:04 33.36943 33.22892 28676 ft 431 kts 151°
2026-05-07 12:04 33.34397 33.24756 28238 ft 429 kts 151°
2026-05-07 12:04 33.31859 33.26613 27800 ft 426 kts 151°
2026-05-07 12:05 33.29338 33.28458 27366 ft 424 kts 151°
2026-05-07 12:05 33.26835 33.30287 26931 ft 421 kts 151°
2026-05-07 12:05 33.24338 33.32111 26497 ft 419 kts 151°
2026-05-07 12:05 33.21855 33.33923 26063 ft 417 kts 151°
2026-05-07 12:06 33.19387 33.35723 25631 ft 415 kts 151°
2026-05-07 12:06 33.16930 33.37514 25198 ft 413 kts 151°
2026-05-07 12:06 33.14485 33.39295 24765 ft 411 kts 151°
2026-05-07 12:06 33.12053 33.41066 24334 ft 409 kts 151°
2026-05-07 12:07 33.09634 33.42830 23903 ft 407 kts 150°
2026-05-07 12:07 33.07227 33.44594 23472 ft 405 kts 151°
2026-05-07 12:07 33.04823 33.46343 23041 ft 403 kts 150°
2026-05-07 12:07 33.02437 33.48077 22613 ft 401 kts 150°
2026-05-07 12:08 33.00055 33.49804 22184 ft 399 kts 150°
2026-05-07 12:08 32.97688 33.51518 21756 ft 397 kts 150°
2026-05-07 12:08 32.95330 33.53223 21329 ft 395 kts 150°
2026-05-07 12:08 32.92985 33.54917 20905 ft 393 kts 150°
2026-05-07 12:09 32.90653 33.56603 20483 ft 391 kts 150°
2026-05-07 12:09 32.88334 33.58278 20062 ft 389 kts 150°
2026-05-07 12:09 32.86022 33.59947 19643 ft 387 kts 150°
2026-05-07 12:09 32.83745 33.61651 19224 ft 386 kts 147°
2026-05-07 12:10 32.81620 33.63589 18808 ft 385 kts 140°
2026-05-07 12:10 32.79674 33.65766 18390 ft 383 kts 135°
2026-05-07 12:10 32.78458 33.67277 18115 ft 382 kts 133°
2026-05-07 12:10 32.76667 33.69601 17696 ft 381 kts 133°
2026-05-07 12:11 32.74867 33.71897 17282 ft 379 kts 133°
2026-05-07 12:11 32.72472 33.74892 16738 ft 376 kts 134°
2026-05-07 12:11 32.70665 33.77128 16332 ft 374 kts 134°
2026-05-07 12:11 32.69452 33.78624 16060 ft 372 kts 134°
2026-05-07 12:12 32.67077 33.81544 15527 ft 369 kts 134°
2026-05-07 12:12 32.65296 33.83731 15096 ft 368 kts 134°
2026-05-07 12:12 32.64096 33.85203 14817 ft 367 kts 134°
2026-05-07 12:12 32.62331 33.87368 14412 ft 364 kts 134°
2026-05-07 12:13 32.60575 33.89520 14014 ft 362 kts 134°
2026-05-07 12:13 32.58832 33.91656 13620 ft 359 kts 134°
2026-05-07 12:13 32.57125 33.93746 13234 ft 356 kts 134°
2026-05-07 12:13 32.55417 33.95853 12917 ft 351 kts 134°
2026-05-07 12:14 32.53754 33.97942 12659 ft 345 kts 134°
2026-05-07 12:14 32.52122 33.99985 12410 ft 339 kts 134°
2026-05-07 12:14 32.50511 34.01995 12168 ft 334 kts 134°
2026-05-07 12:14 32.48917 34.03982 11928 ft 330 kts 134°
2026-05-07 12:15 32.47340 34.05945 11691 ft 328 kts 134°
2026-05-07 12:15 32.45772 34.07897 11456 ft 327 kts 134°
2026-05-07 12:15 32.44220 34.09863 11219 ft 324 kts 130°
2026-05-07 12:15 32.43000 34.12071 10982 ft 319 kts 116°
2026-05-07 12:16 32.42214 34.14501 10728 ft 314 kts 106°
2026-05-07 12:16 32.41720 34.17003 10479 ft 310 kts 100°
2026-05-07 12:16 32.41353 34.19497 10234 ft 305 kts 99°
2026-05-07 12:16 32.40956 34.21946 10000 ft 301 kts 101°
2026-05-07 12:17 32.40540 34.24331 9956 ft 290 kts 101°
2026-05-07 12:17 32.40122 34.26666 9614 ft 292 kts 101°
2026-05-07 12:17 32.39705 34.28979 9322 ft 290 kts 101°
2026-05-07 12:17 32.39289 34.31297 9085 ft 286 kts 101°
2026-05-07 12:18 32.38880 34.33572 8946 ft 280 kts 101°
2026-05-07 12:18 32.38479 34.35814 8829 ft 278 kts 101°
2026-05-07 12:18 32.38075 34.38052 8716 ft 278 kts 101°
2026-05-07 12:18 32.37669 34.40289 8604 ft 278 kts 101°
2026-05-07 12:19 32.37263 34.42521 8492 ft 277 kts 101°
2026-05-07 12:19 32.36856 34.44750 8383 ft 277 kts 101°
2026-05-07 12:19 32.36450 34.46974 8273 ft 276 kts 101°
2026-05-07 12:19 32.36046 34.49189 8164 ft 276 kts 101°
2026-05-07 12:20 32.35547 34.51378 8051 ft 276 kts 111°
2026-05-07 12:20 32.34611 34.53356 7966 ft 276 kts 123°
2026-05-07 12:20 32.33562 34.55235 7900 ft 271 kts 122°
2026-05-07 12:20 32.32498 34.57072 7803 ft 272 kts 125°
2026-05-07 12:21 32.31359 34.58886 7680 ft 276 kts 126°
2026-05-07 12:21 32.30208 34.60705 7564 ft 277 kts 126°
2026-05-07 12:21 32.29057 34.62524 7451 ft 276 kts 126°
2026-05-07 12:21 32.27910 34.64337 7342 ft 276 kts 126°
2026-05-07 12:22 32.26761 34.66153 7234 ft 276 kts 126°
2026-05-07 12:22 32.25615 34.67961 7126 ft 274 kts 126°
2026-05-07 12:22 32.24477 34.69758 7021 ft 273 kts 126°
2026-05-07 12:22 32.23339 34.71555 6916 ft 273 kts 126°
2026-05-07 12:23 32.22206 34.73344 6812 ft 272 kts 126°
2026-05-07 12:23 32.21072 34.75132 6706 ft 271 kts 126°
2026-05-07 12:23 32.19957 34.76890 6603 ft 271 kts 126°
2026-05-07 12:23 32.18827 34.78671 6498 ft 271 kts 126°
2026-05-07 12:24 32.17700 34.80447 6393 ft 270 kts 126°
2026-05-07 12:24 32.16556 34.82248 6290 ft 270 kts 126°
2026-05-07 12:24 32.15448 34.83997 6187 ft 269 kts 126°
2026-05-07 12:24 32.14314 34.85788 6079 ft 269 kts 125°
2026-05-07 12:25 32.13225 34.87549 5979 ft 269 kts 125°
2026-05-07 12:25 32.12117 34.89320 5878 ft 268 kts 126°
2026-05-07 12:25 32.11008 34.91081 5775 ft 268 kts 126°
2026-05-07 12:25 32.09895 34.92840 5670 ft 267 kts 126°
2026-05-07 12:26 32.08780 34.94596 5568 ft 267 kts 126°
2026-05-07 12:26 32.07662 34.96354 5468 ft 268 kts 126°
2026-05-07 12:26 32.06545 34.98107 5364 ft 267 kts 126°
2026-05-07 12:26 32.05429 34.99857 5259 ft 267 kts 126°
2026-05-07 12:27 32.04312 35.01607 5159 ft 267 kts 126°
2026-05-07 12:27 32.03196 35.03355 5058 ft 266 kts 126°
2026-05-07 12:27 32.02085 35.05094 4956 ft 266 kts 126°
2026-05-07 12:27 32.00974 35.06833 4854 ft 265 kts 126°
2026-05-07 12:28 31.99864 35.08570 4754 ft 266 kts 126°
2026-05-07 12:28 31.98752 35.10310 4653 ft 266 kts 126°
2026-05-07 12:28 31.97639 35.12050 4552 ft 265 kts 126°
2026-05-07 12:28 31.96530 35.13784 4449 ft 265 kts 126°
2026-05-07 12:29 31.95376 35.15466 4340 ft 263 kts 135°
2026-05-07 12:29 31.93809 35.16472 4163 ft 256 kts 168°
2026-05-07 12:29 31.92105 35.16362 4029 ft 238 kts 195°
2026-05-07 12:29 31.90652 35.15669 3991 ft 215 kts 212°
2026-05-07 12:30 31.89751 35.14383 3972 ft 203 kts 249°
2026-05-07 12:30 31.89492 35.12790 3922 ft 193 kts 265°
2026-05-07 12:30 31.89483 35.11254 3834 ft 183 kts 273°
2026-05-07 12:30 31.89598 35.09784 3749 ft 177 kts 282°
2026-05-07 12:31 31.90052 35.08456 3705 ft 174 kts 300°
2026-05-07 12:31 31.90689 35.07231 3697 ft 177 kts 303°
2026-05-07 12:31 31.91360 35.05984 3569 ft 183 kts 303°
2026-05-07 12:31 31.92037 35.04707 3308 ft 183 kts 303°
2026-05-07 12:32 31.92702 35.03439 3040 ft 180 kts 303°
2026-05-07 12:32 31.93351 35.02197 2784 ft 176 kts 303°
2026-05-07 12:32 31.93982 35.00986 2535 ft 169 kts 303°
2026-05-07 12:32 31.94575 34.99847 2319 ft 157 kts 304°
2026-05-07 12:33 31.95665 34.97753 1880 ft 147 kts 304°
2026-05-07 12:33 31.96192 34.96740 1678 ft 143 kts 304°
2026-05-07 12:33 31.96708 34.95748 1474 ft 140 kts 304°
2026-05-07 12:34 31.97212 34.94777 1278 ft 138 kts 304°
2026-05-07 12:34 31.97715 34.93814 1081 ft 138 kts 304°
2026-05-07 12:34 31.98209 34.92854 882 ft 136 kts 303°
2026-05-07 12:34 31.98701 34.91891 689 ft 139 kts 304°
2026-05-07 12:35 31.99202 34.90930 500 ft 137 kts 304°
2026-05-07 12:35 31.99708 34.89967 303 ft 138 kts 304°
2026-05-07 12:35 32.00208 34.89011 151 ft 134 kts 304°
2026-05-07 12:35 32.00628 34.88209 143 ft 86 kts 300°
2026-05-07 12:36 32.00843 34.87796 143 ft 44 kts 302°
2026-05-07 12:36 32.00989 34.87513 143 ft 37 kts 298°
2026-05-07 12:36 32.01060 34.87262 143 ft 28 kts 275°
2026-05-07 12:36 32.01056 34.87066 143 ft 19 kts 237°
2026-05-07 12:37 32.00990 34.87082 143 ft 11 kts 121°
2026-05-07 12:37 32.00951 34.87159 143 ft 11 kts 121°
2026-05-07 12:37 32.00914 34.87231 143 ft 10 kts 121°
2026-05-07 12:37 32.00878 34.87301 143 ft 10 kts 121°
2026-05-07 12:38 32.00843 34.87368 143 ft 9 kts 122°
2026-05-07 12:38 32.00809 34.87432 143 ft 9 kts 121°
2026-05-07 12:38 32.00777 34.87496 143 ft 10 kts 121°
2026-05-07 12:38 32.00739 34.87569 143 ft 10 kts 121°
2026-05-07 12:39 32.00703 34.87639 143 ft 10 kts 122°
2026-05-07 12:39 32.00667 34.87707 143 ft 9 kts 124°
2026-05-07 12:39 32.00610 34.87719 143 ft 9 kts 206°
2026-05-07 12:39 32.00562 34.87675 143 ft 9 kts 227°
2026-05-07 12:40 32.00528 34.87617 143 ft 8 kts 238°
2026-05-07 12:40 32.00484 34.87579 143 ft 8 kts 187°
2026-05-07 12:40 32.00443 34.87567 143 ft 5 kts 224°
2026-05-07 12:40 32.00431 34.87553 143 ft 0 kts 228°